This is the latest recevied weather packets stored in our database for station/object N4WFF. If no packets are shown the sender has not sent any weather packets the latest 1 day(s).
| Time | Temp. | Humidity | Pressure | Rain* | Wind** | Luminosity | Snow |
|---|---|---|---|---|---|---|---|
| 1778034056 | 21.11° C | 81% | 1014.6 hPa | 0 mm | - | 0 W/m² | - |
| 1778033755 | 21.11° C | 80% | 1014.4 hPa | 0 mm | - | 0 W/m² | - |
| 1778033456 | 21.11° C | 80% | 1014.3 hPa | 0 mm | - | 0 W/m² | - |
| 1778033155 | 21.11° C | 79% | 1014.3 hPa | 0 mm | - | 0 W/m² | - |
| 1778032856 | 21.11° C | 79% | 1014.4 hPa | 0 mm | - | 0 W/m² | - |
| 1778032556 | 21.11° C | 79% | 1014.5 hPa | 0 mm | - | 0 W/m² | - |
| 1778032256 | 21.11° C | 79% | 1014.5 hPa | 0 mm | - | 0 W/m² | - |
| 1778031956 | 21.11° C | 78% | 1014.6 hPa | 0 mm | - | 0 W/m² | - |
| 1778031355 | 21.67° C | 77% | 1014.6 hPa | 0 mm | - | 0 W/m² | - |
| 1778030755 | 21.67° C | 76% | 1014.6 hPa | 0 mm | - | 0 W/m² | - |
| 1778030156 | 22.22° C | 75% | 1014.4 hPa | 0 mm | - | 0 W/m² | - |
| 1778029557 | 22.22° C | 73% | 1014.4 hPa | 0 mm | - | 0 W/m² | - |
| 1778029255 | 22.78° C | 73% | 1014.4 hPa | 0 mm | - | 0 W/m² | - |
| 1778028955 | 22.78° C | 73% | 1014.4 hPa | 0 mm | - | 0 W/m² | - |
| 1778028656 | 22.78° C | 72% | 1014.3 hPa | 0 mm | - | 0 W/m² | - |
| 1778028355 | 22.78° C | 72% | 1014.2 hPa | 0 mm | - | 0 W/m² | - |
| 1778028055 | 22.78° C | 72% | 1014 hPa | 0 mm | - | 0 W/m² | - |
| 1778027756 | 23.33° C | 71% | 1013.9 hPa | 0 mm | - | 1 W/m² | - |
| 1778027155 | 23.33° C | 70% | 1013.9 hPa | 0 mm | - | 4 W/m² | - |
| 1778026856 | 23.33° C | 70% | 1013.9 hPa | 0 mm | - | 7 W/m² | - |
| 1778026255 | 23.89° C | 69% | 1013.8 hPa | 0 mm | - | 13 W/m² | - |
| 1778025956 | 23.89° C | 68% | 1013.8 hPa | 0 mm | - | 17 W/m² | - |
| 1778025356 | 24.44° C | 66% | 1013.8 hPa | 0 mm | - | 38 W/m² | - |
| 1778025056 | 24.44° C | 65% | 1013.8 hPa | 0 mm | - | 50 W/m² | - |
| 1778024756 | 25° C | 65% | 1013.6 hPa | 0 mm | - | 50 W/m² | - |
* Rain latest hour (hover to see other rain measurements)
** Current wind speed in m/s (hover to see current wind gust speed)